OpenBCM V1.07b12 (Linux)

Packet Radio Mailbox

DB0FHN

[JN59NK Nuernberg]

 Login: GUEST





  
I0OJJ  > KEPS     18.02.25 05:52l 336 Lines 15904 Bytes #999 (0) @ AMSAT
BID : ORB25049.1
Read: DJ6UX GUEST
Subj: 2Line Orbital Elements 25049.AMSAT
Path: DB0FHN<DB0FFL<OE5XBL<OE6XPE<DB0ERF<IZ3LSV<I0OJJ<I0OJJ
Sent: 250218/0345z @:I0OJJ.ITA.EU [Rome] obcm1.08-6-g5b69

>From i0ojj%i0ojj.ita.eu@i0ojj.ampr.org Tue Feb 18 04:45:07 2025
Received: from i0ojj.ampr.org by i0ojj.ampr.org (JNOS2.0p.6) with SMTP
	id AA17022215 ; Tue, 18 Feb 2025 04:45:07 +0100
Message-Id: <ORB25049.1@i0ojj.bbs>
>From: i0ojj@i0ojj.ita.eu
X-JNOS-User-Port: Telnet   (i0ojj @ 44.134.109.10)  -> Sending message

From: I0OJJ @ I0OJJ.ITA.EU (Gustavo)
To:   KEPS @ AMSAT
X-Info: This message was generated automatically


QST de W1STR

AMSAT Orbital Elements for Amateur Satellites in TLE Format
>From Orbital Analysis Office
New England Sci-Tech STEM Education Center
Natick, MA February 18, 2025
To all radio amateurs


These element sets describe the orbits of various satellites 
in use by the amateur radio community. For details see:
www.amsat.org/keplerian-elements-formats/

A daily update of element sets is available at:
www.amsat.org/tle/daily-bulletin.txt
or without bulletin text:
www.amsat.org/tle/dailytle.txt


AO-07
1 07530U 74089B   25048.62146096 -.00000040  00000-0  41559-4 0  9999
2 07530 101.9942  51.6918 0012072 337.0845 141.0441 12.53686165299799
UO-11
1 14781U 84021B   25048.85508676  .00003968  00000-0  43038-3 0  9997
2 14781  97.7408  17.5757 0007679 359.3430   0.7776 14.88713189206012
AO-27
1 22825U 93061C   25048.67596301  .00000271  00000-0  12076-3 0  9993
2 22825  98.7534 109.5976 0009465  82.5758 277.6499 14.30730615637980
FO-29
1 24278U 96046B   25048.66486118  .00000032  00000-0  71514-4 0  9994
2 24278  98.5868 317.2269 0348886 272.5269  83.5982 13.53237467407882
NOAA-15
1 25338U 98030A   25048.75954625  .00000353  00000-0  16328-3 0  9997
2 25338  98.5482  76.5194 0009618 332.0515  28.0148 14.26885505392454
GO-32
1 25397U 98043D   25048.50291884  .00000273  00000-0  13859-3 0  9997
2 25397  98.9582  25.3596 0001756 135.5999 224.5320 14.24255008382337
ISS
1 25544U 98067A   25048.86150170  .00016610  00000-0  29603-3 0  9994
2 25544  51.6391 178.0267 0004105 330.1473 172.8419 15.50222990496656
NO-44
1 26931U 01043C   25048.38333096  .00000501  00000-0  21881-3 0  9992
2 26931  67.0503  57.9048 0005990 264.5121  95.5297 14.31621062221043
SO-50
1 27607U 02058C   25048.82516117  .00003141  00000-0  41671-3 0  9998
2 27607  64.5543 185.3459 0042970   2.1387 357.9894 14.80968536192882
CO-55
1 27844U 03031E   25048.53184522  .00000777  00000-0  35866-3 0  9993
2 27844  98.6793  58.2449 0010285 147.3570 212.8246 14.23823679122728
CO-57
1 27848U 03031J   25048.49900272  .00000691  00000-0  32488-3 0  9992
2 27848  98.6823  58.3008 0009876 163.4365 196.7138 14.23183823122420
RS-22
1 27939U 03042A   25048.80134833  .00002837  00000-0  46226-3 0  9991
2 27939  98.3145 215.6563 0011670   8.9634 102.7245 14.71777190144380
NOAA-18
1 28654U 05018A   25048.78602835  .00000396  00000-0  23357-3 0  9998
2 28654  98.8507 129.4964 0015159  88.0942 272.1966 14.13517828 17956
CO-58
1 28895U 05043F   25048.32607144  .00004419  00000-0  74100-3 0  9993
2 28895  98.2299 191.4499 0014070 304.3895  55.5980 14.70180793 30447
CO-65
1 32785U 08021C   25048.53209487  .00011482  00000-0  87316-3 0  9997
2 32785  97.7713  19.1087 0009274 227.6556 132.3884 15.02263489912249
AAUSAT2
1 32788U 08021F   25048.51502658  .00124346  00000-0  23054-2 0  9996
2 32788  97.6071  40.3570 0006471  74.3782 285.8182 15.48497672915932
CO-66
1 32791U 08021J   25048.48191477  .00023646  00000-0  13009-2 0  9999
2 32791  97.7198  26.4407 0004654 158.9862 201.1561 15.14049963913502
RS-30
1 32953U 08025A   25048.77718166  .00000035  00000-0  18090-3 0  9998
2 32953  82.5028 296.7338 0018826 291.4193  68.4878 12.43158938759636
NOAA-19
1 33591U 09005A   25048.77422210  .00000332  00000-0  20130-3 0  9996
2 33591  99.0129 112.7879 0013047 322.4301  37.5958 14.13287259826317
SRMSAT
1 37841U 11058D   25048.55465294  .00000637  00000-0  20280-3 0  9998
2 37841  19.9716 112.4272 0011541 273.1629 224.1038 14.11363055689269
ZACUBE-1
1 39417U 13066B   25048.87329164  .00010146  00000-0  92111-3 0  9998
2 39417  97.7671   6.7153 0047706  66.1197 294.5011 14.94596208608216
Delfi-N3xt
1 39428U 13066N   25048.33703272  .00017261  00000-0  18590-2 0  9990
2 39428  97.8374 327.4401 0089863  10.9809 349.3340 14.85556408602390
GOMX-1
1 39430U 13066Q   25048.85372708  .00004379  00000-0  69370-3 0  9995
2 39430  97.6988 274.3216 0133869 189.2964 170.5762 14.66827272599020
LO-74
1 39440U 13066AA  25048.60258232  .00007719  00000-0  81179-3 0  9996
2 39440  97.8392 354.1462 0063789 187.4302 172.5975 14.88187721604770
AO-73
1 39444U 13066AE  25048.49176455  .00016825  00000-0  13539-2 0  9995
2 39444  97.7507  10.3938 0043350  45.1296 315.3434 14.99293499606775
DTUSAT-2
1 40030U 14033W   25048.34944928  .00014596  00000-0  10185-2 0  9992
2 40030  98.0443  15.0438 0012291  82.2035 278.0585 15.05425833579498
EO-80
1 40032U 14033Y   25048.44240155  .00015787  00000-0  10987-2 0  9999
2 40032  98.0330  14.9463 0010009  32.0567 328.1265 15.05526400579482
XW-2C
1 40906U 15049H   25047.62605869  .06460715  25777-5  82494-3 0  9990
2 40906  97.4284  83.7622 0006300 238.5188 121.5494 16.35922890522636
LILACSAT-2
1 40908U 15049K   25048.64237616  .00017801  00000-0  52600-3 0  9997
2 40908  97.5165  66.5223 0009611 189.7282 170.3776 15.34960256521037
IO-86
1 40931U 15052B   25038.81889873  .00001817  00000-0  15548-3 0  9993
2 40931   6.0001 108.1159 0012838 187.7041 172.2889 14.78568669506492
Horyu-4
1 41340U 16012D   25048.40608603  .00033694  00000-0  11295-2 0  9993
2 41340  30.9990 162.5701 0006065 344.6122  15.4337 15.29698485495553
Lapan A3
1 41603U 16040E   25048.80777833  .00006314  00000-0  22964-3 0  9997
2 41603  97.1400  57.8798 0009790 315.6326  44.4129 15.28541539480708
CAS-2T
1 41847U 16066G   25048.44189556  .00004026  00000-0  58081-3 0  9991
2 41847  98.4308 123.8671 0348612 157.4797 204.2127 14.42948110434845
CAS-4B
1 42759U 17034B   25048.81276608  .00051806  00000-0  96952-3 0  9993
2 42759  43.0101 260.3831 0017824 233.3262 126.5959 15.47752415425193
CAS-4A
1 42761U 17034D   25048.84170615  .00054864  00000-0  10076-2 0  9999
2 42761  43.0139 258.1521 0019197 239.5095 120.3869 15.48241574425210
TechnoSat
1 42829U 17042E   25048.52688532  .00006569  00000-0  52696-3 0  9994
2 42829  97.3893 222.6550 0011856 310.4816  49.5374 15.00350476413913
AO-91
1 43017U 17073E   25048.57892291  .00014428  00000-0  78005-3 0  9997
2 43017  97.5484 282.2638 0181250 187.2155 172.6457 15.01704949392388
S-Net D
1 43186U 18014G   25048.44804215  .00010385  00000-0  64509-3 0  9997
2 43186  97.5726 312.5803 0007486 245.7507 114.2940 15.09839854385444
S-Net B
1 43187U 18014H   25048.25329324  .00010278  00000-0  63867-3 0  9997
2 43187  97.5735 312.3537 0008325 241.3554 118.6838 15.09821649385418
S-Net A
1 43188U 18014J   25048.24995793  .00010146  00000-0  63026-3 0  9997
2 43188  97.5742 312.4864 0008173 242.1276 117.9126 15.09840290385417
S-Net C
1 43189U 18014K   25048.25543677  .00010398  00000-0  64593-3 0  9998
2 43189  97.5759 312.4866 0009885 234.3068 125.7242 15.09819235383960
Ten-Koh
1 43677U 18084G   25048.73680638  .00006617  00000-0  54453-3 0  9992
2 43677  98.0852 216.5561 0010376 279.8091  80.1960 14.99425668343479
PO-101
1 43678U 18084H   25048.89847454  .00004867  00000-0  42441-3 0  9990
2 43678  98.0946 220.8749 0007366 304.3441  55.7082 14.97338148343666
QO-100
1 43700U 18090A   25048.32891840  .00000152  00000-0  00000-0 0  9994
2 43700   0.0173 105.9941 0001400 255.0868 290.6687  1.00276297 22810
MinXSS-2
1 43758U 18099A   25048.59470302  .00023396  00000-0  10754-2 0  9995
2 43758  97.5179 114.5915 0013331 185.9647 174.1431 15.20286877339927
AO-95
1 43770U 18099N   25048.62169466  .00015407  00000-0  85378-3 0  9998
2 43770  97.5090 108.0943 0010518 236.8019 123.2204 15.13845462339594
RANGE-A
1 43773U 18099R   25048.61724765  .00009392  00000-0  62550-3 0  9992
2 43773  97.4663 100.2895 0011172 210.7841 149.2733 15.07268565339347
MOVE-II
1 43780U 18099Y   25048.18761559  .00084977  00000-0  19564-2 0  9992
2 43780  97.4827 118.4691 0004310 195.3810 164.7307 15.42298944340313
SNUSat 2
1 43782U 18099AA  25048.60074556  .00012564  00000-0  73851-3 0  9998
2 43782  97.4777 105.6926 0012995 174.9897 185.1466 15.11747138339562
SnugLite
1 43784U 18099AC  25048.60882230  .00015548  00000-0  85531-3 0  9999
2 43784  97.4590 105.0771 0004020 166.1864 193.9479 15.14143283339673
ITASat 1
1 43786U 18099AE  25048.62824801  .00011787  00000-0  71739-3 0  9999
2 43786  97.4742 105.5277 0014230 229.2081 130.7915 15.10486617339543
EAGLET 1
1 43790U 18099AJ  25048.56925388  .00008686  00000-0  57705-3 0  9990
2 43790  97.4941 105.7395 0011983 208.8869 151.1697 15.07379400339182
ESEO
1 43792U 18099AL  25048.56889605  .00003694  00000-0  28729-3 0  9991
2 43792  97.4591 100.4397 0010824 174.4418 185.6929 15.01818641339000
CSIM
1 43793U 18099AM  25048.43338007  .00099261  00000-0  22679-2 0  9995
2 43793  97.5001 120.7061 0007308 172.7323 187.4031 15.42451331340190
JO-97
1 43803U 18099AX  25048.73186806  .00017796  00000-0  90920-3 0  9996
2 43803  97.4833 109.0145 0008489 169.0591 191.0828 15.16711252339795
Suomi 100
1 43804U 18099AY  25048.12492868  .00017734  00000-0  95311-3 0  9999
2 43804  97.4898 107.9804 0013568 174.3302 185.8086 15.14871586339656
ISAT
1 43879U 18111D   25048.50101957  .00028395  00000-0  11955-2 0  9990
2 43879  97.6032 320.8943 0008188 220.9383 139.1240 15.23296321336591
UWE-4
1 43880U 18111E   25048.49510750  .00026584  00000-0  12103-2 0  9999
2 43880  97.5968 320.0432 0011350 237.6559 122.3578 15.20612706336561
Sparrow
1 43881U 18111F   25048.56176724  .00029933  00000-0  12272-2 0  9995
2 43881  97.6157 323.4455 0005342 273.7931  86.2695 15.24200810336688
